RH
67 57 57 57 60 76 77 63 78 87 80 88 82 59 42 43 41 40 36 34 36 37 37 40 43 47 50 49 48 58 60 55 63 64 64 80 94 97 95 100 100 99 100 100
85 58 64 91 77 89 90 69 65 56 82 83 62 53 55 51 46 49 45 40 45 45 44 46 47 48 51 50 46 56 65 58 57 63 68 78 88 99 96 100 100 100 100 100
82 62 61 90 91 82 69 72 72 84 87 59 59 53 52 53 48 55 57 53 50 45 42 41 42 46 51 50 47 57 68 59 57 65 70 77 90 100 98 99 100 100 100 100
86 65 84 92 58 51 52 69 65 64 64 59 59 54 51 44 50 48 45 41 39 38 40 41 41 42 43 48 46 60 69 60 57 70 71 74 92 100 99 99 100 100 100 100
88 90 63 83 75 70 69 71 74 76 70 64 60 62 49 39 42 48 49 48 47 46 45 45 45 44 46 46 47 66 68 60 58 69 73 79 97 100 100 99 100 100 100 100
86 93 85 89 58 56 51 92 78 72 74 79 74 86 58 50 54 55 55 54 53 53 51 50 49 47 47 48 53 67 66 58 52 67 73 80 95 98 100 100 100 100 100 100
90 95 92 71 62 46 64 74 79 75 81 84 89 77 67 61 61 59 58 57 57 57 57 56 54 53 52 52 56 69 58 53 50 66 75 73 100 95 99 100 99 100 100 100
86 89 90 68 62 86 91 81 77 87 82 87 83 75 70 64 63 63 65 65 65 64 62 60 59 57 55 55 67 57 50 57 52 71 76 84 99 99 98 100 99 100 100 100
96 82 50 52 55 63 68 91 80 88 81 81 86 79 74 73 71 69 70 70 70 71 69 65 62 59 58 63 58 52 60 58 58 79 78 89 98 96 99 99 99 99 100 100
80 52 60 51 48 53 71 75 74 78 83 83 90 80 78 78 76 74 77 78 80 87 81 74 69 64 60 57 54 58 62 58 72 86 82 88 96 98 100 100 100 99 100 100
82 60 66 47 57 69 79 76 74 81 78 81 82 84 79 85 77 80 84 85 95 93 81 80 76 68 63 60 60 62 62 71 89 87 84 87 94 98 100 100 100 100 99 100
94 72 94 81 67 68 88 84 86 91 88 78 78 89 86 84 80 84 92 91 93 91 88 91 81 71 66 63 61 65 78 91 89 97 94 84 89 92 99 99 99 100 99 100
94 92 90 77 63 63 82 84 90 90 90 93 88 90 90 88 84 89 88 88 90 95 96 93 84 75 70 65 64 66 80 87 90 97 97 93 87 93 100 98 98 100 99 100
91 94 77 64 87 73 79 88 78 74 72 79 82 81 84 84 80 83 88 94 96 96 98 96 80 75 67 63 63 66 72 83 99 94 86 95 81 89 100 100 99 100 99 99
73 78 80 71 68 71 73 76 80 74 75 79 80 80 85 90 88 92 95 96 96 92 95 98 98 95 97 94 86 82 83 88 94 94 100 93 83 96 100 100 100 100 100 100
83 68 64 72 70 73 79 83 86 82 82 85 83 87 93 94 94 94 92 96 95 93 95 97 98 98 98 99 99 99 94 97 92 87 86 86 86 100 100 99 99 100 100 100
92 85 87 84 85 86 86 86 92 92 90 89 93 94 93 89 86 89 91 95 98 98 97 98 98 98 98 99 97 96 100 98 91 85 87 96 99 100 97 99 99 100 100 99
95 92 92 94 94 92 88 90 92 93 94 95 95 94 93 92 94 94 95 97 94 92 94 100 98 97 98 100 100 99 98 98 94 92 95 100 100 100 100 98 99 100 100 100
96 95 95 95 96 95 94 94 95 96 96 96 95 95 96 95 96 96 97 92 92 90 95 99 100 99 97 99 99 99 99 99 100 100 100 99 99 99 100 99 99 99 100 99
92 93 94 94 93 96 94 94 96 95 97 96 96 93 92 94 96 96 95 88 97 98 97 97 96 98 98 98 99 98 98 98 98 98 99 99 98 99 99 98 98 98 98 98
94 96 95 96 96 96 98 98 98 96 96 97 96 96 96 95 96 94 90 91 96 97 97 98 98 98 98 98 97 98 98 98 98 98 98 99 98 98 98 98 98 98 97 97
98 98 99 98 98 97 96 99 100 100 99 98 98 100 97 93 92 88 86 98 97 98 98 97 98 97 98 99 97 97 98 98 98 98 98 98 97 97 97 97 97 97 97 96
97 99 100 100 99 98 96 96 96 100 98 100 100 100 100 99 98 94 91 96 97 99 98 98 97 98 100 97 97 97 97 97 97 97 97 97 97 97 97 96 96 96 96 96
95 95 97 97 94 96 97 99 94 98 97 96 99 100 100 100 89 99 100 100 99 100 100 97 98 99 100 97 97 97 97 97 96 96 96 96 96 96 96 96 96 96 96 96
93 96 92 97 94 99 100 100 95 96 95 93 96 100 99 100 99 99 100 100 100 99 98 100 99 99 96 96 97 97 97 97 96 96 96 96 95 94 92 89 86 80 73 71
93 100 91 93 98 100 100 100 99 99 98 96 95 100 100 98 100 93 95 97 98 100 97 98 99 96 96 98 97 97 96 97 96 99 97 98 98 97 97 97 97 97 98 99
92 96 94 94 98 100 100 100 100 100 100 99 97 100 100 99 97 92 95 93 94 97 97 96 96 98 96 97 96 97 98 98 99 98 98 97 96 95 96 96 97 97 96 98
Wind_Speed
11 14 14 14 14 10 2 4 2 8 2 8 9 12 12 13 17 15 12 9 10 10 11 14 19 21 24 26 27 27 28 28 26 25 27 25 24 24 21 13 22 27 30 32
8 8 5 0 10 10 9 12 4 6 5 16 14 13 15 16 19 17 15 11 12 13 16 18 22 23 26 27 29 28 25 27 28 27 25 26 27 27 24 20 14 22 26 29
3 9 4 6 13 15 12 10 5 7 7 14 17 19 18 19 18 12 12 14 15 15 20 24 26 26 26 28 27 25 23 26 26 26 27 27 27 24 26 23 16 14 24 24
4 7 3 6 12 11 12 9 11 10 13 14 14 16 18 16 9 13 17 21 21 26 30 30 31 28 28 27 27 24 23 24 25 24 26 27 26 23 27 25 19 12 17 23
3 3 1 6 13 11 11 5 12 15 14 17 19 17 16 6 11 15 19 25 28 31 30 32 30 30 27 27 26 21 20 23 24 26 26 26 23 23 25 25 20 10 10 14
3 3 3 5 14 15 9 5 13 20 21 19 19 14 14 16 20 23 28 27 29 33 34 31 32 28 27 29 25 21 20 26 28 26 25 25 23 22 25 22 18 11 7 7
4 2 2 10 13 13 5 7 20 17 16 18 15 11 24 23 23 28 30 32 31 30 30 33 31 28 26 27 26 20 23 27 29 27 24 24 22 18 21 21 17 12 5 4
3 3 2 14 9 6 6 14 15 16 17 19 20 21 23 22 22 26 28 31 32 28 28 31 29 26 26 28 24 21 27 26 27 26 23 21 15 17 18 17 13 10 4 1
2 4 9 12 10 7 14 15 15 19 21 20 21 21 21 20 21 23 31 31 32 28 28 28 27 25 25 29 23 25 24 25 25 25 21 16 13 15 17 14 11 10 4 4
7 1 12 16 8 15 16 17 19 19 20 20 20 20 21 18 18 20 29 29 32 26 24 25 24 24 27 27 24 24 23 24 23 22 20 14 11 11 13 11 9 8 7 3
6 7 18 4 17 18 19 17 20 22 21 18 19 20 19 18 18 24 28 30 27 20 23 23 22 22 24 25 22 22 22 21 20 20 18 12 11 12 14 12 9 8 9 10
4 14 7 15 18 19 16 19 19 19 19 25 22 19 22 17 25 27 27 31 27 22 20 20 19 21 23 24 22 20 17 16 16 16 15 11 12 15 14 11 10 8 8 11
6 12 12 19 14 19 18 19 24 22 23 17 24 22 25 22 25 30 28 29 29 26 20 18 19 20 23 22 21 20 17 19 16 16 17 14 9 12 11 12 9 6 6 7
7 12 8 7 13 24 22 24 26 25 22 22 24 26 25 25 27 27 27 31 31 28 21 17 18 20 22 21 20 20 20 18 17 15 15 14 11 11 12 8 6 4 5 6
12 14 13 17 20 19 22 22 16 16 21 23 26 25 26 24 23 26 29 31 30 25 23 21 17 19 16 15 17 19 18 16 16 14 12 11 11 12 11 8 7 8 7 7
14 11 12 13 14 15 18 16 15 16 20 24 25 26 27 26 26 26 29 31 27 23 26 24 20 21 18 13 14 15 15 15 14 14 15 14 13 11 9 8 8 11 11 11
14 16 16 15 15 16 15 19 18 20 22 23 25 27 27 26 26 28 30 31 28 25 26 24 24 25 17 11 12 14 14 15 14 14 14 13 12 12 10 10 9 11 13 16
15 17 18 17 14 14 16 21 22 24 21 25 26 25 24 24 22 27 30 30 27 24 30 30 27 24 21 17 8 10 12 13 14 14 13 13 13 13 12 11 13 15 16 20
17 17 20 20 20 19 19 20 23 23 24 25 25 23 23 24 27 29 30 28 26 25 34 32 27 28 26 23 11 3 7 11 12 12 13 12 12 14 15 14 17 19 20 20
18 19 20 20 21 20 20 23 24 23 25 25 26 26 26 28 29 29 30 27 32 30 31 32 30 30 29 27 23 22 19 15 13 13 15 15 14 15 18 20 20 21 23 25
17 19 20 20 21 21 22 23 23 23 26 25 24 24 23 25 28 28 29 23 37 37 31 32 33 28 30 30 31 30 27 25 24 21 19 19 21 21 21 22 23 25 26 27
17 17 19 20 20 21 25 23 25 24 25 26 27 27 27 27 30 30 29 30 34 38 35 35 36 36 35 34 33 33 32 30 27 26 25 24 24 25 24 24 24 25 27 26
18 19 19 20 21 20 20 25 27 25 25 25 27 28 26 23 22 24 21 36 33 34 35 37 37 37 37 37 36 35 35 34 31 30 29 29 28 27 26 25 25 24 23 21
18 21 20 21 20 21 23 26 25 24 24 23 25 27 26 27 27 32 30 29 34 31 33 37 34 34 35 35 34 32 34 33 33 33 32 32 31 29 27 24 23 20 18 15
17 18 20 20 19 18 19 22 21 24 24 24 25 27 28 27 19 26 29 32 30 33 34 32 32 33 36 35 34 31 30 29 31 31 29 28 25 23 21 19 16 14 12 10
17 15 17 16 16 18 17 18 17 18 21 22 22 26 28 28 27 28 30 28 31 31 34 33 31 35 35 33 34 33 32 29 30 27 27 25 23 22 20 18 16 14 11 10
16 14 16 15 19 22 19 19 17 19 22 20 21 24 25 28 28 28 28 30 31 32 33 33 32 31 32 33 35 33 30 29 26 26 24 22 21 19 18 16 15 13 13 11
Wind_Direction
264 273 279 282 301 320 300 264 334 342 70 16 355 1 7 360 347 341 339 338 352 349 347 337 340 342 342 342 345 344 344 343 334 337 338 338 332 337 341 310 257 248 242 226
292 298 328 326 38 32 22 15 4 337 64 4 20 3 357 347 331 331 331 345 352 349 345 337 335 334 333 332 335 336 335 333 333 334 335 338 335 342 343 335 303 250 238 223
294 324 312 114 12 37 5 39 350 27 10 357 353 342 334 328 315 326 340 336 332 327 324 321 320 322 319 318 324 325 325 329 331 330 331 336 335 337 342 341 326 269 246 219
296 332 57 111 37 18 356 60 35 17 353 345 328 312 303 296 291 328 328 322 317 313 311 309 309 309 310 309 316 315 317 323 328 328 326 332 335 333 341 343 335 291 253 228
343 302 254 25 6 345 335 307 30 358 342 331 328 319 306 349 342 316 301 298 298 299 298 300 300 304 304 305 307 305 309 318 324 326 322 324 328 329 335 337 332 315 266 244
324 316 347 4 336 319 294 242 352 352 339 336 332 317 307 320 310 303 297 292 292 294 294 292 294 298 300 296 296 295 304 313 320 320 319 317 321 328 328 335 325 320 304 259
319 291 116 354 347 323 21 317 333 329 317 316 309 291 298 305 301 297 294 293 290 285 283 285 287 290 288 289 285 288 307 309 314 314 316 318 317 322 325 329 331 321 298 242
322 316 350 23 353 8 340 315 313 316 312 311 305 302 301 304 304 304 300 297 292 284 278 278 279 279 280 279 280 296 306 302 306 310 313 313 309 322 325 328 334 318 302 246
360 299 354 356 330 342 334 321 320 317 317 313 309 307 308 310 307 303 302 299 295 286 278 273 272 269 271 273 287 296 292 295 298 307 308 306 303 317 321 325 327 315 250 201
343 36 354 323 346 335 333 322 318 313 311 311 309 312 310 310 309 307 306 302 297 283 274 270 266 262 263 271 282 283 285 289 294 302 304 299 300 307 309 308 302 296 280 212
262 284 332 281 332 331 321 317 315 313 311 312 315 313 314 314 312 311 307 310 309 282 273 267 264 260 262 270 276 276 282 282 289 297 296 282 294 307 302 297 278 270 260 234
283 317 304 295 308 312 318 316 315 314 317 320 321 315 317 314 316 317 316 320 317 303 296 273 263 262 268 275 274 273 273 275 287 290 284 273 292 312 305 293 281 253 250 237
295 307 305 291 301 319 317 313 317 324 321 317 319 319 319 318 322 326 322 324 325 320 297 283 270 266 274 277 275 272 264 274 278 283 274 263 272 303 294 310 291 258 237 223
320 325 311 317 313 317 318 320 322 321 324 324 326 327 326 325 328 329 326 327 327 329 326 301 281 273 280 281 278 273 271 272 267 277 264 254 267 287 282 271 266 204 214 204
330 319 294 301 311 317 325 327 328 333 336 335 337 334 332 329 331 328 327 333 333 337 340 337 321 313 309 288 273 269 266 253 264 274 266 258 271 275 265 248 224 191 184 180
321 317 325 325 326 329 331 331 333 336 337 338 337 336 333 332 333 334 336 340 339 337 338 336 333 328 324 304 283 271 260 246 254 264 263 263 266 248 225 218 201 175 166 168
331 338 336 333 332 331 333 333 334 335 333 335 335 335 337 339 341 341 339 340 337 336 341 344 337 341 338 305 275 267 261 259 255 257 256 253 246 223 212 195 181 162 161 168
324 321 327 324 326 331 334 337 339 337 340 337 339 340 342 343 341 338 336 339 349 353 358 354 355 355 4 1 299 256 252 251 252 249 245 233 220 202 186 179 156 144 140 139
337 334 334 335 335 337 336 338 340 338 345 346 346 345 341 345 347 344 343 353 359 3 359 360 4 13 19 14 6 313 246 239 237 229 218 196 167 174 154 139 127 122 120 120
342 345 343 343 345 346 341 344 344 347 352 352 351 353 352 351 351 350 355 6 1 4 6 12 18 19 24 31 46 57 68 81 97 116 128 123 118 110 112 113 111 109 110 114
343 343 345 347 345 348 351 349 349 354 353 358 357 353 348 352 359 358 4 7 1 11 15 22 28 31 35 42 48 50 53 57 62 66 74 83 87 88 90 93 94 99 103 110
342 344 346 348 350 349 355 354 0 359 0 1 1 1 359 0 1 1 9 6 4 13 19 27 32 40 45 46 47 50 53 54 56 60 64 72 77 78 78 81 84 90 100 105
350 353 350 353 352 345 353 8 4 360 2 1 2 2 1 356 4 5 356 1 13 18 23 26 31 37 42 43 45 49 51 52 54 57 60 64 68 72 75 79 87 95 99 100
1 6 359 3 360 7 4 355 0 2 5 8 9 11 7 1 2 11 12 10 17 23 25 27 31 37 40 40 43 45 51 56 58 62 65 71 73 76 78 81 82 84 86 88
6 5 6 2 7 0 353 353 359 5 5 8 9 12 15 17 8 4 19 19 21 26 31 26 29 41 43 44 45 45 46 51 58 65 66 67 68 70 71 73 73 76 80 82
7 0 6 8 2 359 357 0 359 357 3 4 8 10 13 21 23 30 30 31 33 28 35 36 29 44 47 45 49 51 52 48 56 57 62 62 63 64 64 63 63 62 61 61
13 10 8 7 9 7 8 6 360 358 7 7 7 15 14 22 27 32 33 37 39 36 38 40 41 39 45 48 51 51 53 54 52 56 58 57 57 56 55 54 52 50 49 45